EW1600 Weather Reports


time (UTC)temp
C
wind
direction
speed
KPH
gust
KPH
rain 1hr
cm
rain 24hr
cm
rain mn
cm
humidity
%
barometer
mb
20260506044504 1 185 1.6 4.8 0.05 1.30 0.05 91 1012.9
20260506044004 1 184 1.6 3.2 0.05 1.30 0.05 91 1013.0
20260506043503 1 250 1.6 4.8 0.05 1.30 0.05 91 1012.9
20260506043003 1 264 4.8 11.3 0.05 1.30 0.05 91 1012.9
20260506042504 1 295 1.6 8.0 0.05 1.30 0.05 91 1013.0
20260506042004 1 254 1.6 9.7 0.05 1.27 0.05 91 1013.0
20260506041503 1 264 1.6 8.0 0.05 1.27 0.05 91 1013.0
20260506040503 1 288 1.6 4.8 0.05 1.27 0.05 91 1013.0
20260506040004 1 296 3.2 9.7 0.05 1.27 0.05 91 1013.0
20260506035503 1 275 1.6 3.2 0.03 1.27 0.03 91 1013.0
20260506035004 1 259 1.6 9.7 0.03 1.27 0.03 91 1013.0
20260506034504 1 186 3.2 11.3 0.03 1.27 0.03 91 1013.1
20260506034004 1 176 3.2 11.3 0.00 1.24 0.00 91 1013.0
20260506033503 0 255 1.6 4.8 0.00 1.24 0.00 91 1013.0
20260506033005 0 281 1.6 8.0 0.00 1.24 0.00 91 1012.9
20260506032503 0 104 0.0 1.6 0.00 1.24 0.00 91 1012.9
20260506032003 0 94 0.0 3.2 0.00 1.24 0.00 90 1012.9
20260506031503 0 320 1.6 3.2 0.00 1.24 0.00 90 1012.9
20260506031003 0 19 1.6 4.8 0.00 1.24 0.00 90 1012.9
20260506030504 0 327 1.6 4.8 0.00 1.24 0.00 89 1013.0
20260506030003 0 201 1.6 3.2 0.00 1.24 0.00 89 1013.0
20260506025503 0 327 1.6 4.8 0.00 1.24 0.00 89 1013.0
20260506024004 1 222 3.2 9.7 0.00 1.24 0.00 89 1013.1
20260506023504 1 280 1.6 8.0 0.00 1.24 0.00 89 1013.0
20260506023004 1 294 0.0 4.8 0.00 1.24 0.00 89 1013.0
20260506022504 1 297 3.2 4.8 0.00 1.24 0.00 89 1013.0
20260506022003 1 307 1.6 4.8 0.00 1.24 0.00 89 1012.9
20260506021503 1 291 1.6 4.8 0.00 1.24 0.00 89 1012.9
20260506015504 1 252 3.2 16.1 0.00 1.24 0.00 89 1013.0
20260506015004 1 260 8.0 16.1 0.00 1.24 0.00 89 1013.1
20260506014503 1 275 8.0 16.1 0.00 1.24 0.00 89 1013.0
20260506013503 1 210 3.2 12.9 0.00 1.24 0.00 89 1012.9
20260506013003 1 152 4.8 14.5 0.00 1.24 0.00 90 1013.0
20260506012503 1 143 3.2 14.5 0.00 1.24 0.00 90 1012.9
20260506012004 1 258 1.6 4.8 0.00 1.24 0.00 90 1012.9
20260506011504 1 262 1.6 9.7 0.00 1.24 0.00 90 1012.9
20260506011004 1 298 1.6 8.0 0.00 1.24 0.00 90 1012.9
20260506005504 0 133 4.8 11.3 0.00 1.24 0.00 90 1012.9
20260506005003 0 153 1.6 8.0 0.00 1.24 0.00 90 1013.0
20260506004003 0 286 1.6 3.2 0.00 1.24 0.00 90 1013.0
20260506003503 0 50 1.6 3.2 0.00 1.24 0.00 89 1012.8
20260506003004 0 280 1.6 3.2 0.00 1.24 0.00 89 1012.8
20260506002503 0 121 1.6 3.2 0.00 1.24 0.00 89 1012.8
20260506002003 0 292 1.6 4.8 0.00 1.24 0.00 89 1012.8
20260506001503 0 318 0.0 4.8 0.00 1.24 0.00 89 1013.0
20260506001004 0 343 1.6 4.8 0.00 1.24 0.00 89 1013.1
20260506000504 0 330 0.0 3.2 0.00 1.24 0.00 89 1012.9
20260506000004 0 320 1.6 3.2 0.00 1.24 0.00 88 1013.0
20260505235504 0 291 0.0 1.6 0.00 1.24 0.00 88 1012.9
20260505235004 0 303 1.6 4.8 0.00 1.24 0.00 88 1013.2
20260505234504 1 356 0.0 0.0 0.00 1.24 0.00 88 1013.1
20260505234004 1 356 0.0 1.6 0.00 1.24 0.00 88 1013.1
20260505233504 0 73 0.0 1.6 0.00 1.24 0.00 87 1013.1
20260505233004 0 70 0.0 3.2 0.00 1.24 0.00 87 1013.1
20260505232503 0 54 1.6 4.8 0.00 1.24 0.00 87 1013.1
20260505232003 1 305 0.0 0.0 0.00 1.24 0.00 86 1013.2
20260505231504 1 299 1.6 4.8 0.00 1.24 0.00 84 1013.3
20260505231004 1 295 1.6 4.8 0.00 1.24 0.00 82 1013.3
20260505230004 2 271 8.0 19.3 0.00 1.24 0.00 80 1013.4
20260505225504 2 272 8.0 19.3 0.00 1.24 0.00 78 1013.3
20260505225004 2 246 4.8 11.3 0.00 1.24 0.00 77 1013.2
20260505224503 2 193 1.6 4.8 0.00 1.24 0.00 77 1013.0
20260505224003 2 294 0.0 4.8 0.00 1.24 0.00 78 1012.9
20260505223503 1 247 3.2 4.8 0.00 1.24 0.00 79 1012.8
20260505223003 1 296 4.8 11.3 0.00 1.24 0.00 80 1012.8
20260505222504 1 293 3.2 4.8 0.00 1.24 0.00 80 1012.8
20260505222004 1 224 1.6 3.2 0.00 1.24 0.00 80 1012.9
20260505221503 1 202 4.8 14.5 0.00 1.27 0.00 81 1012.8
20260505221003 1 136 1.6 4.8 0.00 1.27 0.00 81 1012.9
20260505220504 1 141 1.6 4.8 0.00 1.27 0.00 82 1012.9
20260505220003 1 150 0.0 1.6 0.00 1.27 0.00 81 1013.0
20260505215503 1 165 0.0 8.0 0.00 1.27 1.27 81 1013.0
20260505215003 1 261 3.2 11.3 0.00 1.27 1.27 81 1013.0
20260505214504 1 221 1.6 11.3 0.00 1.27 1.27 81 1013.1
20260505214004 1 270 3.2 14.5 0.00 1.27 1.27 81 1013.1
20260505213503 1 242 3.2 14.5 0.00 1.27 1.27 82 1013.1
20260505213004 1 233 1.6 9.7 0.00 1.27 1.27 81 1013.1
20260505212003 1 203 3.2 8.0 0.00 1.27 1.27 80 1013.1
20260505211503 1 143 4.8 12.9 0.00 1.27 1.27 80 1013.1
20260505211004 1 202 3.2 12.9 0.00 1.27 1.27 80 1013.1
20260505210003 2 152 3.2 11.3 0.00 1.27 1.27 81 1013.1
20260505205503 2 163 1.6 4.8 0.00 1.27 1.27 81 1013.1
20260505205004 2 159 1.6 11.3 0.00 1.27 1.27 81 1013.2
20260505204504 1 209 1.6 12.9 0.00 1.27 1.27 81 1013.1
20260505203503 1 159 0.0 3.2 0.00 1.27 1.27 82 1013.0
20260505203004 1 212 0.0 3.2 0.00 1.27 1.27 81 1013.0
20260505202504 2 128 0.0 4.8 0.00 1.27 1.27 81 1013.0
20260505201503 2 159 1.6 4.8 0.00 1.27 1.27 82 1013.0
20260505201004 2 156 1.6 9.7 0.00 1.27 1.27 83 1013.0
20260505200503 2 147 1.6 8.0 0.00 1.27 1.27 83 1012.9
20260505195504 2 170 0.0 1.6 0.00 1.27 1.27 85 1012.8
20260505195004 1 191 0.0 1.6 0.00 1.27 1.27 85 1012.9
20260505194504 1 176 1.6 4.8 0.00 1.27 1.27 86 1012.9
20260505194004 1 91 0.0 1.6 0.00 1.27 1.27 86 1012.8
20260505193504 1 95 0.0 1.6 0.00 1.27 1.27 86 1012.7
20260505193004 1 100 0.0 1.6 0.00 1.27 1.27 86 1012.7
20260505192004 1 114 0.0 1.6 0.00 1.27 1.27 85 1012.8
20260505191503 1 114 0.0 1.6 0.00 1.27 1.27 85 1012.8
20260505190504 1 135 1.6 3.2 0.00 1.27 1.27 83 1012.8
20260505190004 1 328 0.0 1.6 0.00 1.27 1.27 82 1012.8
20260505185503 1 324 0.0 4.8 0.00 1.27 1.27 81 1012.7
20260505185004 2 342 3.2 9.7 0.00 1.27 1.27 79 1012.7
20260505184004 2 292 11.3 19.3 0.00 1.27 1.27 76 1012.8
20260505183504 3 277 8.0 19.3 0.00 1.27 1.27 76 1012.7
20260505182003 3 207 3.2 12.9 0.00 1.27 1.27 75 1012.5
20260505181504 3 263 3.2 11.3 0.00 1.30 1.27 74 1012.5
20260505181003 3 274 3.2 11.3 0.00 1.30 1.27 75 1012.6
20260505180503 3 209 3.2 11.3 0.00 1.30 1.27 74 1012.6
20260505180004 3 262 3.2 9.7 0.00 1.30 1.27 74 1012.6
20260505175504 3 260 3.2 11.3 0.00 1.30 1.27 73 1012.7
20260505174504 4 216 3.2 8.0 0.00 1.30 1.27 71 1012.6
20260505174004 4 225 4.8 16.1 0.00 1.30 1.27 71 1012.6
20260505173503 5 257 4.8 12.9 0.00 1.30 1.27 71 1012.6
20260505173004 4 245 4.8 14.5 0.00 1.30 1.27 70 1012.5
20260505172504 5 249 6.4 14.5 0.00 1.30 1.27 71 1012.4
20260505172004 4 255 3.2 12.9 0.00 1.30 1.27 73 1012.5
20260505171504 3 266 6.4 12.9 0.00 1.30 1.27 74 1012.5
20260505171004 3 267 6.4 16.1 0.00 1.30 1.27 74 1012.5
20260505170503 3 268 4.8 14.5 0.00 1.30 1.27 74 1012.5
20260505170004 4 285 4.8 12.9 0.00 1.30 1.27 75 1012.5
20260505165504 4 260 6.4 14.5 0.00 1.30 1.27 74 1012.4
20260505165004 4 261 4.8 14.5 0.00 1.30 1.27 74 1012.4
20260505164504 3 220 6.4 12.9 0.00 1.30 1.27 73 1012.4
20260505164004 3 270 4.8 11.3 0.00 1.30 1.27 74 1012.4
20260505163504 3 271 6.4 12.9 0.00 1.30 1.27 74 1012.4
20260505162504 4 255 4.8 11.3 0.00 1.30 1.27 75 1012.5
20260505162004 3 250 6.4 14.5 0.00 1.30 1.27 77 1012.4
20260505161504 3 257 8.0 16.1 0.00 1.32 1.27 78 1012.4
20260505161004 3 230 3.2 9.7 0.00 1.32 1.27 80 1012.4
20260505152004 2 277 4.8 11.3 0.05 1.37 1.27 86 1012.4
20260505151004 2 279 4.8 16.1 0.05 1.37 1.27 87 1012.5
20260505150504 2 274 6.4 14.5 0.05 1.37 1.27 87 1012.5
20260505140504 4 201 4.8 14.5 0.25 1.30 1.19 73 1011.9
20260505125004 4 182 4.8 19.3 0.36 0.99 0.89 74 1011.7
20260505124504 4 293 8.0 14.5 0.36 0.94 0.84 76 1011.7
20260505123504 3 267 4.8 16.1 0.38 0.89 0.79 76 1011.7
20260505123004 3 254 8.0 19.3 0.41 0.89 0.79 75 1011.8
20260505122504 3 286 3.2 14.5 0.43 0.86 0.76 76 1011.7
20260505120005 4 251 4.8 16.1 0.41 0.69 0.58 75 1011.5
20260505115004 3 270 3.2 12.9 0.43 0.61 0.51 79 1011.5
20260505114503 3 228 4.8 12.9 0.41 0.58 0.48 79 1011.5
20260505114004 3 284 4.8 14.5 0.38 0.53 0.43 79 1011.6
20260505113503 3 167 8.0 19.3 0.36 0.51 0.43 80 1011.6
20260505113003 3 265 1.6 8.0 0.33 0.48 0.38 83 1011.7
20260505112504 2 255 3.2 12.9 0.28 0.43 0.33 81 1011.7
20260505112004 3 256 1.6 4.8 0.23 0.41 0.30 81 1011.7
20260505111504 3 284 4.8 11.3 0.23 0.38 0.28 84 1011.6
20260505111004 3 325 4.8 9.7 0.20 0.33 0.23 85 1011.5
20260505110503 2 327 3.2 4.8 0.15 0.30 0.20 85 1011.6
20260505102004 0 270 0.0 0.0 0.03 0.15 0.05 90 1011.6
20260505100503 0 23 0.0 1.6 0.03 0.15 0.05 90 1011.5
20260505100004 0 23 0.0 0.0 0.03 0.15 0.05 90 1011.5
20260505095504 0 11 0.0 0.0 0.03 0.15 0.05 90 1011.5
20260505095004 0 84 0.0 0.0 0.03 0.15 0.05 90 1011.5
20260505094503 0 331 0.0 0.0 0.03 0.15 0.05 90 1011.5
20260505094003 0 294 0.0 1.6 0.03 0.15 0.05 89 1011.6
20260505093503 0 284 0.0 1.6 0.03 0.15 0.05 89 1011.6
20260505093004 0 200 0.0 1.6 0.03 0.15 0.05 89 1011.7
20260505092503 0 257 1.6 4.8 0.03 0.15 0.05 88 1011.8
20260505092004 0 220 1.6 4.8 0.03 0.15 0.05 88 1011.8
20260505091504 0 226 1.6 4.8 0.00 0.15 0.03 87 1011.7
20260505091004 0 235 1.6 8.0 0.00 0.15 0.03 87 1011.8
20260505090504 0 235 4.8 14.5 0.00 0.15 0.03 86 1011.7
20260505085503 0 142 8.0 19.3 0.00 0.15 0.03 86 1011.2
20260505085003 0 133 3.2 12.9 0.00 0.15 0.03 87 1011.1
20260505084503 0 80 1.6 4.8 0.00 0.15 0.03 87 1011.0
20260505084003 0 125 0.0 4.8 0.00 0.15 0.03 87 1011.1
20260505083503 0 88 0.0 3.2 0.00 0.15 0.03 87 1011.0
20260505083004 0 44 1.6 4.8 0.00 0.15 0.03 87 1011.1
20260505082004 0 352 0.0 1.6 0.00 0.15 0.03 86 1011.1
20260505081504 0 352 1.6 4.8 0.00 0.15 0.03 86 1011.1
20260505081004 0 319 1.6 4.8 0.00 0.15 0.03 85 1011.2
20260505080504 0 312 3.2 9.7 0.00 0.15 0.03 83 1011.1
20260505080004 0 339 3.2 12.9 0.00 0.15 0.03 81 1011.1
20260505075504 0 302 3.2 11.3 0.00 0.15 0.03 80 1011.1
20260505074504 1 275 8.0 19.3 0.00 0.15 0.03 73 1011.0
20260505074004 2 209 3.2 12.9 0.00 0.15 0.03 72 1010.8
20260505073504 2 168 4.8 14.5 0.00 0.15 0.03 71 1010.7
20260505073004 2 204 3.2 12.9 0.00 0.15 0.03 71 1010.5
20260505072504 1 171 4.8 12.9 0.00 0.15 0.03 73 1010.6
20260505072004 1 279 4.8 12.9 0.00 0.15 0.03 74 1010.6
20260505071004 1 295 1.6 11.3 0.00 0.15 0.03 75 1010.6
20260505070504 1 285 1.6 16.1 0.00 0.15 0.03 75 1010.5
20260505065504 1 251 8.0 14.5 0.00 0.15 0.03 77 1010.5
20260505065004 1 195 3.2 11.3 0.00 0.15 0.03 79 1010.6
20260505064504 1 233 4.8 12.9 0.00 0.15 0.03 80 1010.7
20260505064004 1 257 4.8 19.3 0.00 0.15 0.03 80 1010.6
20260505063504 1 242 4.8 11.3 0.00 0.15 0.03 81 1010.6
20260505063004 1 227 4.8 11.3 0.00 0.15 0.03 80 1010.7
20260505062004 1 154 4.8 12.9 0.00 0.15 0.03 80 1010.6
20260505061503 1 154 1.6 9.7 0.00 0.18 0.03 80 1010.7
20260505060503 0 204 1.6 8.0 0.00 0.18 0.03 81 1010.8
20260505055503 0 237 1.6 11.3 0.00 0.18 0.03 82 1010.7
20260505055003 0 241 0.0 4.8 0.00 0.18 0.03 82 1010.7
20260505054003 0 233 4.8 12.9 0.00 0.18 0.03 83 1010.7
20260505053504 0 166 3.2 12.9 0.00 0.18 0.03 83 1010.7
20260505052504 0 139 4.8 16.1 0.00 0.18 0.03 85 1010.7
20260505052004 0 195 4.8 12.9 0.00 0.18 0.03 85 1010.7
20260505051503 0 205 4.8 16.1 0.00 0.20 0.03 86 1010.8
20260505051004 0 195 4.8 12.9 0.00 0.20 0.03 87 1010.7
20260505050504 0 267 3.2 12.9 0.00 0.20 0.03 88 1010.7